Location: Góry Miechowskie
(50.3599°N, 20.1803°E)
Time: 23:00:45
(UTC+00:00)

Tiros 1 despin weight - Pass Details

Date: 17 September 2024
Orbit: 572 x 614 km, 48.2° (Epoch: 12 October)

Event Time Altitude Azimuth Distance (km) Brightness Sun altitude
Rises 07:30:37 0° 276° (W) 2,887 ? 28.2°
Reaches altitude 10° 07:34:03 10° 250° (WSW) 1,975 ? 28.6°
Maximum altitude 07:36:11 13° 222° (SW) 1,765 ? 28.9°
Drops below altitude 10° 07:38:18 10° 193° (SSW) 1,963 ? 29.1°
Sets 07:41:42 0° 167° (SSE) 2,854 ? 29.6°
